Location: Lecco
(45.8566°N, 9.3977°E)
Time: 10:54:05
(UTC+02:00)

Vanguard 2 Rocket - Pass Details

Date: 14 August 2020
Orbit: 554 x 3326 km, 32.9° (Epoch: 24 September)

Event Time Altitude Azimuth Distance (km) Brightness Sun altitude
Rises 00:24:55 0° 263° (W) 5,023 10.8 -28.2°
Reaches altitude 10° 00:29:22 10° 246° (WSW) 4,504 10.3 -28.4°
Enters shadow 00:35:41 18° 216° (SW) 4,453 10.0 -28.7°
Maximum altitude 00:37:09 18° 209° (SSW) 4,550 - -28.8°
Drops below altitude 10° 00:47:04 10° 174° (S) 5,877 - -29.2°
Sets 00:54:30 0° 160° (SSE) 7,193 - -29.4°
